ASRTU-1 (AO-123)

Last updated on Sun Apr 12 2026 00:03:15 GMT+0000 (Coordinated Universal Time)

1 61781U 24199AY 26101.48427473 .00007148 00000+0 21414-3 0 9991 2 61781 97.3103 330.7684 0014038 181.1026 179.0189 15.34717764123695
UTC large
Height (km)
Speed (km/s)
/
Latitude / Longitude
Inclination (degrees)
Orbital Period (minutes)
Azimuth
Elevation
Range (km)
Doppler Factor

Next 0 passes for location: London (51.5072 / 0.1276)

Sorry there are no passes over London.
ASRTU-1 (AO-123)